Tucson, AZ

9:39 PM MST on November 21, 2019 (GMT -0700)
Tucson International

Weather History for KTUS - July, 2019

Change the Weather History Date:

Wednesday, July 24, 2019

  Actual Average Record
Temperature  
Mean Temperature 90 °F 86 °F  
Max Temperature 100 °F 98 °F 112 °F (2018)
Min Temperature 79 °F 75 °F 62 °F (1913)
Degree Days  
Heating Degree Days 0 0  
Month to date heating degree days 0  
Since 1 June heating degree days 0  
Since 1 July heating degree days 0  
Cooling Degree Days 24 21  
Month to date cooling degree days 539  
Year to date cooling degree days 1635  
Since 1 June cooling degree days 1133  
Growing Degree Days 40 (Base 50)    
Moisture  
Dew Point 64 °F    
Average Humidity 47    
Maximum Humidity 60    
Minimum Humidity 26    
Precipitation  
Precipitation 0.20 in 0.09 in 1.87 in (1948)
Month to date precipitation 1.59  
Year to date precipitation 4.86  
Sea Level Pressure  
Sea Level Pressure 29.91 in    
Wind  
Wind Speed 9 mph (South)    
Max Wind Speed 30 mph    
Max Gust Speed 51 mph    
Visibility 10 miles    
Events Rain , Thunderstorm    
T = Trace of Precipitation, MM = Missing Value Source: NWS Daily Summary

Daily Weather History Graph

Daily Weather History Graph

Search for Another Location

Airport or City:

Astronomy

Jul. 24, 2019 Rise Set
Actual Time 5:33 AM MST 7:26 PM MST
Civil Twilight 5:06 AM MST 7:53 PM MST
Nautical Twilight 4:33 AM MST 8:26 PM MST
Astronomical Twilight 3:58 AM MST 9:01 PM MST
Moon No Moon Rise 12:23 PM MST (7/24)
Length of Visible Light 14h 47m
Length of Day
13h 53m
Waning Gibbous, 53% of the Moon is Illuminated
Jul 24
Waning Gibbous
Jul 24
Last Quarter
Jul 31
New
Aug 7
First Quarter
Aug 15
Full

Hourly Weather History & Observations

Time (MST) Temp. Heat Index Dew Point Humidity Pressure Visibility Wind Dir Wind Speed Gust Speed Precip Events Conditions
12:53 AM 82.9 °F 84.4 °F 64.0 °F 53% 29.92 in 10.0 mi SE 6.9 mph - 0.00 in   Mostly Cloudy
1:53 AM 82.0 °F 83.4 °F 64.0 °F 54% 29.91 in 10.0 mi SE 13.8 mph - 0.00 in   Clear
2:53 AM 80.1 °F 81.7 °F 64.0 °F 58% 29.91 in 10.0 mi South 9.2 mph - N/A   Clear
3:53 AM 80.1 °F 81.5 °F 63.0 °F 56% 29.91 in 10.0 mi SE 8.1 mph - N/A   Clear
4:53 AM 80.1 °F 81.7 °F 64.0 °F 58% 29.92 in 10.0 mi SE 9.2 mph - N/A   Clear
5:53 AM 79.0 °F - 64.0 °F 60% 29.96 in 10.0 mi SE 3.5 mph - N/A   Scattered Clouds
6:53 AM 79.0 °F - 64.0 °F 60% 29.98 in 10.0 mi WNW 6.9 mph - N/A   Mostly Cloudy
7:53 AM 82.0 °F 83.4 °F 64.0 °F 54% 30.00 in 10.0 mi West 10.4 mph - N/A   Clear
8:53 AM 86.0 °F 86.8 °F 63.0 °F 46% 30.00 in 10.0 mi NNW 9.2 mph - N/A   Clear
9:53 AM 87.1 °F 87.8 °F 63.0 °F 44% 29.99 in 10.0 mi North 8.1 mph - N/A   Clear
10:53 AM 90.0 °F 90.6 °F 63.0 °F 40% 29.96 in 10.0 mi NNW 11.5 mph 16.1 mph N/A   Clear
11:53 AM 91.9 °F 92.5 °F 62.1 °F 37% 29.94 in 10.0 mi SSW 5.8 mph - N/A   Clear
12:53 PM 93.9 °F 94.0 °F 61.0 °F 33% 29.90 in 10.0 mi SE 9.2 mph - N/A   Clear
1:53 PM 96.1 °F 95.6 °F 59.0 °F 29% 29.86 in 10.0 mi South 5.8 mph - N/A   Clear
2:53 PM 98.1 °F 97.2 °F 57.9 °F 26% 29.83 in 10.0 mi ESE 6.9 mph - N/A   Clear
3:53 PM 98.1 °F 97.2 °F 57.9 °F 26% 29.80 in 10.0 mi Variable 3.5 mph - N/A   Clear
4:27 PM 89.1 °F 92.1 °F 66.9 °F 48% 29.97 in 2.5 mi SSE 29.9 mph 44.9 mph 0.00 in Rain , Thunderstorm Heavy Thunderstorms and Rain
4:33 PM 81.0 °F 82.7 °F 64.9 °F 58% 29.98 in 10.0 mi ENE 19.6 mph 50.6 mph 0.08 in Rain , Thunderstorm Heavy Thunderstorms and Rain
4:41 PM 82.9 °F 84.6 °F 64.9 °F 54% 29.98 in 10.0 mi North 16.1 mph 28.8 mph 0.18 in Rain , Thunderstorm Light Thunderstorms and Rain
4:53 PM 86.0 °F 87.6 °F 64.9 °F 49% 29.83 in 10.0 mi WSW 4.6 mph - 0.18 in Rain , Thunderstorm Light Thunderstorms and Rain
5:10 PM 88.0 °F 91.4 °F 68.0 °F 51% 29.96 in 10.0 mi WSW 6.9 mph - 0.00 in Thunderstorm Clear
5:34 PM 88.0 °F 88.7 °F 63.0 °F 43% 29.95 in 10.0 mi WSW 6.9 mph - 0.00 in   Clear
5:53 PM 88.0 °F 88.7 °F 63.0 °F 43% 29.81 in 10.0 mi SW 6.9 mph - 0.00 in   Clear
6:53 PM 87.1 °F 87.5 °F 62.1 °F 43% 29.85 in 10.0 mi WNW 13.8 mph - N/A   Partly Cloudy
7:53 PM 82.9 °F 84.6 °F 64.9 °F 54% 29.87 in 10.0 mi North 4.6 mph - N/A   Clear
8:53 PM 82.9 °F 84.6 °F 64.9 °F 54% 29.89 in 10.0 mi SSE 3.5 mph - N/A   Clear
9:53 PM 82.9 °F 84.6 °F 64.9 °F 54% 29.91 in 10.0 mi South 5.8 mph - N/A   Clear
10:53 PM 82.0 °F 83.8 °F 64.9 °F 56% 29.90 in 10.0 mi SSE 4.6 mph - N/A   Clear
11:53 PM 81.0 °F 83.0 °F 66.0 °F 60% 29.89 in 10.0 mi North - - N/A   Clear